Location: Newark
(35.8833°N, 14.5000°E)
Time: 00:13:14
(UTC+00:00)

ISS - Visible Passes

Search period start: 21 March 2019 00:00
Search period end: 31 March 2019 00:00
Orbit: 406 x 411 km, 51.6° (Epoch: 21 March)

Date Brightness Start Highest point End Pass type
(mag) Time Alt. Az. Time Alt. Az. Time Alt. Az.
21 Mar -3.1 17:50:01 10° SSW 17:53:02 34° SE 17:56:03 10° ENE visible
21 Mar -1.2 19:26:58 10° W 19:28:52 21° NW 19:28:52 21° NW visible
22 Mar -2.4 18:35:23 10° WSW 18:38:29 38° NW 18:40:45 16° NNE visible
23 Mar -3.6 17:44:08 10° SW 17:47:25 77° NW 17:50:43 10° NE visible
23 Mar -0.8 19:23:02 10° NW 19:24:27 12° NNW 19:25:12 12° N visible
24 Mar -1.1 18:30:48 10° WNW 18:33:09 18° NNW 18:35:31 10° NNE visible
25 Mar -1.9 17:39:00 10° W 17:41:56 29° NW 17:44:51 10° NNE visible
26 Mar -0.6 18:27:29 10° NNW 18:27:57 10° NNW 18:28:24 10° NNW visible
